SES-22

operational
NORAD ID: 52933 Int'l Des: 2022-071 Owner: SESSA Country: L
HEOCIRCULARGSOGEO

SES-22について

説明を読み込み中...

リアルタイム位置

3D地球を読み込み中...

次回通過

高度履歴

Altitude vs Time

uPlot chart will show altitude changes over time

軌道要素

1 52933U 22071A 25278.51859580 .00000000 00000-0 00000+0 0 9998
2 52933 0.0175 179.0612 0001127 25.6588 217.3993 1.00269455 4963
Epoch: Oct 5, 2025 • Age: 16 hours

現在のステータス

高度 35787.5 km
速度 3.07 km/s
衛星直下点 0.04°N, 139.03°W
打ち上げ日 Jun 29, 2022
運用期間 3.2 years
タイプ communications

技術仕様

分類 Payload
質量 3500.00 kg
乾燥質量 2000.00 kg
総質量 3500.00 kg
長さ 5.00 m
直径 3.50 m
スパン 30.00 m
形状 Box + 2 Pan
製造者 THALES
バスタイプ Spacebus 4000B2
フェーズステータス In Orbit
所有者/国 SESSA/L

大規模コンステレーション

Loading constellations...